RH
46 45 46 46 47 47 46 46 47 48 50 50 49 47 45 42 40 39 39 39 38 35 34 34 32 31 31 30 25 18 11 6 4 6 14 29 50 72 85 89 86 82
48 49 49 49 50 50 51 51 52 53 53 52 49 47 44 41 39 37 37 37 37 37 36 36 35 34 33 34 33 30 25 17 10 6 4 7 15 32 54 72 84 86
49 54 56 57 58 59 60 60 59 57 55 53 51 49 46 43 41 41 41 40 39 38 38 38 38 36 35 35 35 35 35 30 23 15 9 6 4 7 18 35 56 73
45 57 64 68 69 69 68 65 61 58 56 56 56 53 50 47 47 47 48 49 48 45 43 42 42 40 36 36 36 37 38 37 32 26 17 10 6 4 5 9 21 38
38 55 66 70 70 70 69 66 62 60 60 61 61 60 58 57 58 58 57 58 58 55 51 45 45 44 39 37 38 39 42 41 36 30 23 16 10 6 4 3 5 10
32 44 58 64 65 67 68 68 65 64 64 67 68 69 71 71 72 73 72 70 68 64 57 50 47 46 41 40 42 44 46 43 34 28 26 21 14 8 5 4 4 4
29 33 43 53 60 65 68 69 69 67 69 74 76 78 82 83 83 87 90 88 82 74 62 53 50 48 45 45 48 51 48 39 30 27 26 24 19 11 6 5 5 5
30 30 34 40 48 56 62 68 71 70 70 75 81 85 89 92 94 97 99 95 88 78 67 58 53 51 51 53 58 56 45 35 31 29 25 22 20 14 9 6 6 6
34 34 35 36 39 43 48 54 61 66 69 74 81 87 92 95 98 101 101 96 88 79 71 65 60 57 58 62 66 57 41 36 38 36 31 26 21 16 10 7 7 7
38 38 39 39 39 39 40 41 44 50 58 66 74 84 92 94 95 99 102 100 96 89 80 72 67 66 67 69 70 56 40 41 45 44 42 38 30 24 16 10 8 7
41 42 43 43 43 42 41 40 40 40 42 49 58 70 83 91 93 96 99 101 101 99 94 87 79 75 74 77 77 61 43 43 48 46 47 47 43 38 31 22 16 10
46 49 51 52 53 52 50 49 48 46 42 40 42 49 61 75 85 91 94 96 98 99 99 97 93 89 87 88 87 71 49 43 46 46 46 48 49 48 46 42 36 28
47 50 54 59 63 66 67 66 65 64 60 53 45 42 43 51 64 77 85 90 93 95 97 98 98 97 97 97 95 82 60 44 42 44 46 48 50 51 53 54 54 52
42 44 48 55 63 69 74 78 80 81 81 77 68 57 48 42 44 53 65 76 85 89 91 94 97 100 102 102 99 91 75 55 43 41 44 49 53 55 57 61 64 66
37 37 39 44 51 59 65 72 77 80 84 89 88 82 72 60 48 43 46 54 65 75 81 86 89 92 97 100 99 95 84 65 49 43 45 50 56 62 66 70 74 76
31 31 33 36 42 48 52 58 65 72 79 87 93 94 89 80 66 53 45 43 47 55 64 72 78 79 79 80 81 80 72 59 47 45 50 56 62 69 75 80 85 87
25 26 27 30 37 45 50 53 59 67 74 82 91 95 95 88 73 59 52 48 46 47 50 56 64 71 73 70 65 61 56 52 51 51 56 63 70 77 84 89 92 94
22 24 26 27 32 43 53 58 62 66 70 73 79 86 92 91 74 54 45 47 51 53 52 50 51 56 64 70 71 68 62 58 58 61 67 73 80 86 92 97 100 102
23 23 26 28 29 37 51 62 65 66 67 66 64 65 72 82 79 62 46 41 46 52 57 59 56 51 51 55 63 71 77 76 72 70 73 79 86 93 99 102 104 106
24 24 25 28 30 33 43 56 63 64 64 64 60 55 53 58 67 70 63 54 49 49 52 59 65 65 59 54 53 55 64 75 83 84 81 80 82 88 95 100 102 103
22 25 26 27 29 31 37 47 55 60 62 63 62 60 56 52 51 55 59 61 62 60 56 55 61 68 69 67 63 58 53 54 63 76 84 86 85 83 83 87 91 94
28 23 25 29 30 31 34 40 46 52 57 62 64 65 65 63 59 54 51 51 54 62 67 66 64 67 70 72 72 71 68 60 52 53 60 70 81 86 85 81 79 80
49 34 25 26 30 32 34 37 42 45 47 52 58 63 67 67 67 65 62 57 50 49 57 67 74 75 75 76 79 80 80 80 75 66 57 52 57 69 81 86 81 76
61 58 42 28 25 29 33 36 40 44 45 44 46 51 59 64 66 66 65 66 63 54 48 51 65 78 81 80 84 88 91 91 89 85 77 61 48 47 57 72 81 80
44 64 67 53 35 27 26 30 37 41 43 44 43 43 47 55 61 64 62 62 64 63 57 49 48 60 76 83 83 88 97 100 95 92 88 69 50 42 42 50 64 73
20 43 67 77 67 49 33 26 29 34 38 39 39 40 42 45 52 58 61 60 58 58 60 58 49 45 55 73 82 84 91 98 96 96 92 67 44 41 43 40 47 60
Wind_Speed
29 29 29 30 31 31 32 33 33 34 35 36 37 38 40 41 43 44 45 47 48 50 51 52 52 52 51 50 51 53 61 70 80 91 102 111 116 117 116 115 114 114
29 29 29 29 29 30 30 31 31 32 33 34 36 37 39 40 42 43 43 44 46 47 48 48 49 49 48 47 45 44 47 53 60 69 80 92 105 114 118 119 118 117
27 27 26 26 26 27 27 28 28 29 30 32 34 36 37 39 39 40 40 41 42 43 45 45 46 46 45 44 42 40 40 42 46 52 60 70 83 96 108 116 120 120
26 25 24 24 23 23 24 24 25 26 28 29 31 33 35 35 35 35 36 37 38 39 40 42 42 42 41 40 38 36 36 37 39 43 48 54 64 75 88 100 110 117
26 25 23 22 22 21 21 22 23 24 26 27 29 31 32 32 31 32 32 32 34 34 35 36 37 37 37 35 33 32 31 33 36 39 42 46 52 60 69 80 91 102
26 26 24 23 23 23 22 22 23 23 24 26 27 29 29 28 28 28 28 27 27 28 29 30 32 32 32 30 28 27 28 30 33 35 37 40 44 49 57 64 72 82
27 27 27 26 25 25 24 24 23 23 24 24 25 27 27 26 25 24 23 21 21 22 23 24 26 27 26 24 23 23 25 27 28 30 32 34 36 40 46 52 58 65
26 26 26 26 26 26 26 25 25 24 24 24 25 26 26 25 24 23 21 17 15 16 17 19 20 21 21 19 19 20 22 22 23 24 25 27 29 32 37 42 47 52
27 26 26 26 26 26 26 26 25 25 24 24 25 25 26 25 24 22 20 17 14 12 13 14 15 16 17 16 17 17 18 18 18 19 19 21 23 25 29 33 37 42
29 28 27 27 27 26 26 26 26 26 25 25 25 25 26 25 24 22 20 17 14 12 11 12 12 13 14 14 15 15 16 16 16 16 16 16 16 18 20 24 28 33
29 29 29 29 29 29 28 28 28 28 27 26 26 26 26 25 25 23 21 18 15 13 11 11 10 11 11 12 13 14 15 16 15 15 15 14 13 13 13 15 19 23
29 30 30 30 30 30 30 30 30 30 30 29 28 27 26 25 24 23 22 20 17 14 11 10 9 9 9 10 11 14 16 16 16 15 15 14 13 12 11 11 12 15
28 29 29 30 30 30 30 30 29 29 30 30 29 28 27 26 25 23 22 20 18 16 13 10 8 8 9 10 11 13 15 17 16 15 14 14 14 13 12 11 11 12
27 29 29 29 29 29 29 29 29 28 28 28 28 28 28 27 26 24 22 20 19 17 14 12 10 8 9 10 11 12 14 15 16 15 14 14 14 14 14 13 12 13
26 27 29 29 29 28 28 28 28 28 28 28 27 27 26 26 25 25 23 21 20 18 15 13 11 10 9 9 10 11 12 13 14 14 13 13 14 14 14 14 14 15
25 26 27 28 28 28 27 27 27 27 28 29 28 28 26 25 24 23 23 22 21 19 17 15 13 11 10 10 10 10 10 11 12 12 13 13 13 14 14 15 15 16
25 25 26 26 27 27 26 26 26 26 27 28 29 29 29 27 24 22 21 21 22 21 19 17 15 13 12 11 11 11 11 11 12 12 13 13 13 14 14 15 15 16
25 25 25 25 25 25 24 24 23 24 24 25 27 28 29 29 27 25 22 21 21 22 21 20 18 15 14 13 13 12 12 13 13 14 14 14 14 14 15 15 16 16
25 25 24 24 24 24 23 21 21 21 22 23 24 26 27 27 28 27 25 23 21 22 22 21 20 18 15 14 14 14 14 15 15 15 15 15 15 15 16 16 17 17
25 24 24 24 24 23 22 21 20 19 19 20 22 23 25 26 26 26 26 25 23 22 21 21 21 20 18 16 14 14 15 16 17 17 17 17 18 18 18 18 19 19
25 24 24 24 23 23 22 20 20 19 18 18 19 21 23 24 25 25 26 26 24 22 21 20 20 20 20 18 16 15 14 15 16 18 19 19 20 20 20 21 21 21
27 26 24 24 24 23 22 21 20 19 18 18 18 19 21 22 23 24 25 26 25 24 22 21 19 19 20 20 19 17 16 16 15 16 18 20 21 21 22 22 23 23
29 28 26 25 24 23 22 21 20 20 19 18 18 18 20 21 22 23 24 25 25 25 24 23 21 19 19 20 20 19 18 18 17 17 17 18 21 22 23 24 24 24
31 29 28 27 25 24 23 22 21 21 20 19 18 18 19 20 22 23 24 24 25 25 25 25 23 21 19 19 19 18 18 18 18 19 19 18 19 22 24 25 25 25
33 30 29 29 28 27 25 23 22 22 22 21 20 19 20 21 22 24 25 25 25 25 25 25 24 23 21 19 19 18 17 17 18 19 20 20 18 19 22 24 24 25
36 32 30 30 29 29 28 26 25 25 25 24 23 22 21 22 23 24 25 25 25 25 25 25 25 24 23 21 20 18 17 17 17 18 19 19 16 15 17 20 22 22
Wind_Direction
303 301 299 297 296 294 294 293 293 293 292 291 290 288 285 282 279 276 272 270 268 265 262 260 259 259 259 260 260 258 256 253 250 247 245 243 243 243 243 243 242 242
306 304 301 299 298 297 297 297 296 296 296 295 294 292 290 287 284 280 276 273 269 267 264 261 259 257 257 257 259 260 260 259 255 251 248 245 243 242 242 243 243 242
316 313 310 307 305 304 303 302 301 301 301 301 300 298 296 292 289 284 280 276 271 268 264 261 259 257 255 255 257 259 262 263 262 258 253 249 246 243 242 242 242 242
328 325 322 319 316 314 311 309 309 309 308 308 307 305 302 299 294 289 283 277 273 269 264 261 258 257 255 253 255 258 262 264 265 263 259 253 249 246 244 242 241 241
338 336 333 331 329 328 325 322 320 318 317 317 317 315 312 308 302 296 288 281 274 269 265 260 257 256 254 253 254 258 262 264 265 266 264 259 253 249 246 243 242 241
347 345 343 341 340 340 338 334 330 327 326 326 327 327 324 319 313 306 297 287 277 270 265 259 254 254 253 252 255 259 261 264 266 267 267 264 259 254 249 245 243 241
350 350 349 349 348 347 345 342 338 336 336 336 337 338 337 332 327 321 313 300 285 275 266 258 253 252 252 252 255 259 261 265 268 270 269 267 264 258 252 248 244 241
353 353 352 351 351 350 349 346 345 343 342 343 344 346 347 345 340 337 332 320 302 284 270 260 255 252 250 251 255 258 262 267 270 272 270 267 264 260 254 249 245 241
3 1 358 357 355 354 352 350 349 349 348 349 351 352 353 353 352 349 345 338 325 304 283 269 262 255 252 252 255 258 261 265 269 274 275 272 267 261 255 250 245 242
7 7 6 5 3 1 359 357 355 354 352 352 354 356 356 358 358 358 355 349 339 324 305 287 274 264 258 256 256 256 256 258 265 272 276 277 275 268 260 253 247 243
6 6 6 5 5 5 4 4 2 1 359 358 357 357 358 359 1 1 0 356 349 337 322 305 287 273 266 261 257 253 251 252 258 265 269 272 275 273 267 258 250 245
3 3 3 3 2 2 2 3 2 2 2 3 2 1 359 359 0 1 2 0 357 349 337 321 301 281 269 262 255 251 249 249 253 259 264 266 267 266 264 257 248 243
1 1 1 1 1 0 360 359 359 359 359 360 2 3 3 1 360 359 359 0 359 355 348 337 319 295 277 264 255 250 250 251 254 257 261 264 262 261 258 252 245 238
358 359 360 360 360 0 360 360 359 359 358 357 358 359 2 3 2 359 357 356 355 353 350 343 332 313 293 279 266 258 255 256 258 260 262 262 260 257 253 249 243 237
352 354 355 356 357 358 360 1 2 2 2 1 359 358 357 359 1 1 359 357 352 348 345 341 335 324 309 295 282 272 266 262 261 263 264 262 257 253 250 245 241 237
344 347 349 350 351 352 355 358 1 3 3 3 2 1 358 356 356 358 359 359 356 349 342 335 330 324 316 304 293 284 277 269 264 264 265 263 257 251 247 244 242 240
337 339 341 343 344 345 347 352 356 360 2 2 2 1 1 359 357 356 355 356 357 355 349 339 327 318 311 304 296 287 279 273 268 265 264 262 258 252 248 245 244 244
333 333 334 336 338 338 340 345 350 355 358 0 1 1 1 360 358 356 355 354 353 353 353 348 339 326 312 302 295 288 282 276 271 267 265 262 258 254 250 247 245 245
331 330 330 330 332 332 333 337 343 349 354 357 358 359 1 1 358 355 354 353 350 348 349 349 348 344 334 316 302 291 284 280 275 271 267 263 260 256 252 249 246 245
327 327 327 327 327 327 327 329 333 340 347 352 355 357 359 0 360 357 353 351 347 344 343 344 346 347 347 340 325 307 293 284 278 274 270 266 262 259 255 251 249 247
321 323 323 323 323 322 323 323 325 329 336 343 348 352 354 356 358 358 356 354 351 345 340 340 341 341 342 343 339 329 315 298 285 276 271 267 263 260 257 255 252 250
315 315 317 318 318 317 317 317 319 321 325 331 337 342 346 348 350 353 353 353 354 353 347 341 338 336 334 334 335 332 328 320 307 291 278 269 264 260 258 256 253 251
314 310 310 311 312 312 311 311 312 314 317 321 326 331 336 339 341 343 345 346 349 353 353 348 343 336 331 329 330 330 327 323 319 313 298 281 268 261 257 255 254 252
317 311 306 304 304 305 306 305 305 306 309 313 316 320 325 329 332 334 336 337 339 344 348 348 346 341 333 328 327 328 327 322 318 317 313 299 279 264 257 255 253 252
324 315 308 304 301 299 299 300 300 300 301 304 308 311 315 319 322 325 328 330 332 335 338 340 343 343 339 332 326 324 324 324 320 318 316 309 290 268 256 253 253 253
333 323 313 307 302 298 296 296 295 295 296 298 300 302 306 309 313 316 319 322 325 326 327 330 335 338 338 335 329 323 322 322 321 320 320 315 298 273 257 253 254 255